Météo par heure à Abadin

Ce jour, 2 Décembre, Mercredi

Heure Température Précipitation Vent Pression Humidité
00:00 +8°C° 0.1 mm 1 m/s 711 mmHg 93%
01:00 +7°C° 0.1 mm 2 m/s 711 mmHg 93%
02:00 +7°C° 0.1 mm 2 m/s 710 mmHg 94%
03:00 +7°C° 0 mm 2 m/s 710 mmHg 94%
04:00 +6°C° 0 mm 2 m/s 711 mmHg 93%
05:00 +6°C° 0 mm 2 m/s 710 mmHg 93%
06:00 +6°C° 0 mm 2 m/s 710 mmHg 92%
07:00 +6°C° 0 mm 2 m/s 710 mmHg 90%
08:00 +6°C° 0 mm 2 m/s 710 mmHg 89%
09:00 +6°C° 0 mm 2 m/s 710 mmHg 83%
10:00 +7°C° 0 mm 3 m/s 710 mmHg 77%
11:00 +8°C° 0 mm 2 m/s 710 mmHg 70%
12:00 +8°C° 0 mm 3 m/s 710 mmHg 71%
13:00 +8°C° 0 mm 3 m/s 710 mmHg 71%
14:00 +8°C° 0 mm 3 m/s 709 mmHg 71%
15:00 +7°C° 0 mm 2 m/s 709 mmHg 77%
16:00 +5°C° 0 mm 2 m/s 709 mmHg 83%
17:00 +4°C° 0 mm 2 m/s 709 mmHg 89%
18:00 +5°C° 0 mm 1 m/s 709 mmHg 90%
19:00 +5°C° 0 mm 1 m/s 709 mmHg 91%
20:00 +5°C° 0 mm 1 m/s 709 mmHg 92%
21:00 +4°C° 0 mm 1 m/s 709 mmHg 93%
22:00 +4°C° 0 mm 1 m/s 709 mmHg 95%
23:00 +2°C° 0 mm 0 m/s 708 mmHg 96%

Demain, 3 Décembre, Jeudi

Heure Température Précipitation Vent Pression Humidité
00:00 +3°C° 0 mm 1 m/s 708 mmHg 96%
01:00 +3°C° 0 mm 1 m/s 707 mmHg 96%
02:00 +3°C° 0 mm 1 m/s 706 mmHg 96%
03:00 +3°C° 0 mm 1 m/s 706 mmHg 96%
04:00 +2°C° 0 mm 1 m/s 705 mmHg 95%
05:00 +1°C° 0 mm 2 m/s 704 mmHg 95%
06:00 +2°C° 0 mm 2 m/s 704 mmHg 93%
07:00 +2°C° 0 mm 2 m/s 704 mmHg 90%
08:00 +3°C° 0 mm 2 m/s 703 mmHg 88%
09:00 +3°C° 0 mm 3 m/s 702 mmHg 86%
10:00 +4°C° 0 mm 4 m/s 702 mmHg 85%
11:00 +5°C° 0 mm 4 m/s 701 mmHg 83%
12:00 +5°C° 0.2 mm 5 m/s 700 mmHg 84%
13:00 +5°C° 0.2 mm 5 m/s 699 mmHg 86%
14:00 +5°C° 0.2 mm 5 m/s 697 mmHg 87%
15:00 +4°C° 0.7 mm 6 m/s 697 mmHg 89%
16:00 +4°C° 0.7 mm 6 m/s 696 mmHg 91%
17:00 +4°C° 0.7 mm 6 m/s 695 mmHg 93%
18:00 +3°C° 2.5 mm 6 m/s 694 mmHg 93%
19:00 +3°C° 2.5 mm 6 m/s 694 mmHg 93%
20:00 +3°C° 2.5 mm 5 m/s 694 mmHg 94%
21:00 +2°C° 0.6 mm 5 m/s 694 mmHg 93%
22:00 +1°C° 0.6 mm 4 m/s 693 mmHg 92%
23:00 0°C° 0.6 mm 4 m/s 693 mmHg 92%

Après-demain, 4 Décembre, Vendredi

Heure Température Précipitation Vent Pression Humidité
00:00 0°C° 0.6 mm 4 m/s 693 mmHg 93%
01:00 0°C° 0.6 mm 4 m/s 693 mmHg 94%
02:00 -1°C° 0.6 mm 4 m/s 692 mmHg 95%
03:00 -1°C° 0.7 mm 4 m/s 692 mmHg 94%
04:00 -1°C° 0.7 mm 4 m/s 692 mmHg 94%
05:00 -1°C° 0.7 mm 4 m/s 692 mmHg 93%
06:00 0°C° 1.2 mm 3 m/s 692 mmHg 94%
07:00 0°C° 1.2 mm 3 m/s 692 mmHg 95%
08:00 0°C° 1.2 mm 3 m/s 691 mmHg 96%
09:00 0°C° 1.2 mm 3 m/s 692 mmHg 96%
10:00 0°C° 1.2 mm 3 m/s 692 mmHg 96%
11:00 0°C° 1.2 mm 3 m/s 692 mmHg 96%
12:00 +1°C° 0.7 mm 3 m/s 692 mmHg 95%
13:00 +1°C° 0.7 mm 3 m/s 692 mmHg 95%
14:00 +1°C° 0.7 mm 3 m/s 692 mmHg 94%
15:00 0°C° 0.7 mm 3 m/s 692 mmHg 94%
16:00 +1°C° 0.7 mm 2 m/s 692 mmHg 94%
17:00 +1°C° 0.7 mm 2 m/s 692 mmHg 94%
18:00 +1°C° 0.5 mm 2 m/s 693 mmHg 95%
19:00 -1°C° 0.5 mm 2 m/s 693 mmHg 95%
20:00 -1°C° 0.5 mm 2 m/s 693 mmHg 96%
21:00 -1°C° 0.9 mm 3 m/s 694 mmHg 96%
22:00 0°C° 0.9 mm 3 m/s 694 mmHg 96%
23:00 0°C° 0.9 mm 3 m/s 694 mmHg 96%

5 Décembre, Samedi

Heure Température Précipitation Vent Pression Humidité
00:00 0°C° 0.8 mm 3 m/s 694 mmHg 96%
01:00 0°C° 0.8 mm 3 m/s 695 mmHg 95%
02:00 0°C° 0.8 mm 3 m/s 695 mmHg 95%
03:00 0°C° 0.6 mm 3 m/s 695 mmHg 95%
04:00 0°C° 0.6 mm 3 m/s 695 mmHg 96%
05:00 +1°C° 0.6 mm 2 m/s 695 mmHg 96%
06:00 +1°C° 0.8 mm 2 m/s 696 mmHg 95%
07:00 +1°C° 0.8 mm 2 m/s 696 mmHg 95%
08:00 +2°C° 0.8 mm 2 m/s 697 mmHg 94%
09:00 +1°C° 0.5 mm 3 m/s 697 mmHg 93%
10:00 +2°C° 0.5 mm 3 m/s 697 mmHg 92%
11:00 +1°C° 0.5 mm 4 m/s 698 mmHg 92%
12:00 +1°C° 0.6 mm 4 m/s 698 mmHg 92%
13:00 +1°C° 0.6 mm 4 m/s 698 mmHg 92%
14:00 +2°C° 0.6 mm 3 m/s 698 mmHg 92%
15:00 +1°C° 0.4 mm 3 m/s 698 mmHg 93%
16:00 +1°C° 0.4 mm 3 m/s 698 mmHg 95%
17:00 0°C° 0.4 mm 3 m/s 699 mmHg 96%
18:00 0°C° 0.4 mm 3 m/s 699 mmHg 96%
19:00 +1°C° 0.4 mm 3 m/s 699 mmHg 96%
20:00 +1°C° 0.4 mm 3 m/s 700 mmHg 96%
21:00 +1°C° 0.4 mm 3 m/s 700 mmHg 96%
22:00 +1°C° 0.4 mm 3 m/s 700 mmHg 96%
23:00 0°C° 0.4 mm 3 m/s 700 mmHg 95%

6 Décembre, Dimanche

Heure Température Précipitation Vent Pression Humidité
00:00 0°C° 0.4 mm 3 m/s 700 mmHg 96%
01:00 +1°C° 0.4 mm 3 m/s 700 mmHg 96%
02:00 +1°C° 0.4 mm 3 m/s 700 mmHg 96%
03:00 +1°C° 0.3 mm 3 m/s 700 mmHg 96%
04:00 +1°C° 0.3 mm 3 m/s 699 mmHg 96%
05:00 +1°C° 0.3 mm 3 m/s 699 mmHg 96%
06:00 +1°C° 0.2 mm 3 m/s 699 mmHg 95%
07:00 +1°C° 0.2 mm 3 m/s 700 mmHg 95%
08:00 +1°C° 0.2 mm 3 m/s 700 mmHg 95%
09:00 +2°C° 0.2 mm 3 m/s 700 mmHg 93%
10:00 +3°C° 0.2 mm 4 m/s 700 mmHg 90%
11:00 +4°C° 0.2 mm 4 m/s 700 mmHg 87%
12:00 +4°C° 0.2 mm 4 m/s 700 mmHg 87%
13:00 +4°C° 0.2 mm 3 m/s 700 mmHg 87%
14:00 +4°C° 0.2 mm 3 m/s 700 mmHg 86%
15:00 +3°C° 0.1 mm 3 m/s 700 mmHg 89%
16:00 +4°C° 0.1 mm 2 m/s 700 mmHg 92%
17:00 +3°C° 0.1 mm 2 m/s 700 mmHg 94%
18:00 +3°C° 0.1 mm 2 m/s 700 mmHg 95%
19:00 +3°C° 0.1 mm 2 m/s 700 mmHg 95%
20:00 +3°C° 0.1 mm 2 m/s 700 mmHg 95%
21:00 +3°C° 0.4 mm 2 m/s 699 mmHg 96%
22:00 +4°C° 0.4 mm 1 m/s 699 mmHg 97%
23:00 +4°C° 0.4 mm 1 m/s 699 mmHg 98%

7 Décembre, Lundi

Heure Température Précipitation Vent Pression Humidité
00:00 +4°C° 0.2 mm 1 m/s 699 mmHg 98%
01:00 +4°C° 0.2 mm 1 m/s 699 mmHg 98%
02:00 +4°C° 0.2 mm 1 m/s 699 mmHg 98%
03:00 +5°C° 0.1 mm 1 m/s 699 mmHg 98%
04:00 +5°C° 0.1 mm 1 m/s 699 mmHg 98%
05:00 +5°C° 0.1 mm 1 m/s 699 mmHg 98%
06:00 +5°C° 0.1 mm 1 m/s 700 mmHg 98%
07:00 +5°C° 0.1 mm 1 m/s 700 mmHg 98%
08:00 +6°C° 0.1 mm 1 m/s 700 mmHg 98%
09:00 +7°C° 0 mm 1 m/s 701 mmHg 95%
10:00 +8°C° 0 mm 1 m/s 701 mmHg 93%
11:00 +7°C° 0 mm 2 m/s 701 mmHg 91%
12:00 +7°C° 0.1 mm 2 m/s 701 mmHg 91%
13:00 +8°C° 0.1 mm 2 m/s 700 mmHg 91%
14:00 +8°C° 0.1 mm 2 m/s 700 mmHg 91%
15:00 +7°C° 0 mm 3 m/s 700 mmHg 92%
16:00 +7°C° 0 mm 3 m/s 699 mmHg 93%
17:00 +7°C° 0 mm 3 m/s 699 mmHg 94%
18:00 +6°C° 0.2 mm 4 m/s 699 mmHg 93%
19:00 +6°C° 0.2 mm 4 m/s 698 mmHg 93%
20:00 +7°C° 0.2 mm 5 m/s 697 mmHg 92%
21:00 +7°C° 0.8 mm 5 m/s 696 mmHg 92%
22:00 +7°C° 0.8 mm 5 m/s 696 mmHg 92%
23:00 +7°C° 0.8 mm 6 m/s 695 mmHg 93%
Voir plus

Nous avons besoin de votre consentement

Meteoprog et ses fournisseurs de services peuvent stocker et accéder à des données personnelles telles que des cookies, des identifiants d'appareils ou d'autres technologies similaires sur votre appareil et traiter ces données pour personnaliser le contenu et les publicités, ainsi que pour fournir des fonctionnalités de médias sociaux et analyser le trafic.

  • Stocker et/ou accéder à des informations sur votre appareil

    Des cookies, des identifiants d'appareils ou d'autres informations peuvent être stockés ou accessibles sur votre appareil aux fins indiquées ci-dessus.

  • Annonces et contenus personnalisés, mesure des annonces et des contenus, connaissance de l'audience et développement de produits

    Les annonces et le contenu peuvent être personnalisés en fonction d'un profil. D'autres données peuvent être ajoutées pour mieux personnaliser les annonces et le contenu. Les performances des publicités et du contenu peuvent être mesurées. Il est possible d'obtenir des informations sur le public qui a vu les publicités et le contenu. Ces données peuvent être utilisées pour développer ou améliorer l'expérience de l'utilisateur, les systèmes et les logiciels.

En cliquant sur "J'accepte", vous autorisez l'utilisation de cookies, des identifiants d'appareils, des balises web ou d'autres technologies similaires. Vos paramètres peuvent être modifiés dans le navigateur de votre appareil.

Dans certains cas, des intérêts légitimes peuvent être invoqués plutôt qu'un consentement. Vous pouvez en savoir plus à ce sujet dans notre Politique de confidentialité et de cookies.